Precipitable_Water
0.71 0.63 0.60 0.58 0.56 0.56 0.56 0.58 0.62 0.62 0.61 0.58 0.57 0.55 0.50 0.46 0.45 0.46 0.43 0.40 0.38 0.34
0.71 0.65 0.63 0.62 0.60 0.59 0.59 0.60 0.63 0.64 0.60 0.56 0.54 0.51 0.46 0.43 0.41 0.40 0.38 0.36 0.33 0.30
0.71 0.68 0.67 0.65 0.60 0.60 0.59 0.60 0.62 0.61 0.58 0.54 0.52 0.48 0.43 0.39 0.38 0.35 0.31 0.31 0.29 0.27
0.72 0.70 0.69 0.64 0.62 0.61 0.60 0.60 0.59 0.60 0.57 0.54 0.48 0.44 0.40 0.37 0.33 0.31 0.29 0.27 0.26 0.25
0.71 0.70 0.67 0.63 0.61 0.61 0.58 0.58 0.59 0.61 0.55 0.49 0.44 0.40 0.37 0.33 0.30 0.27 0.25 0.25 0.24 0.22
0.72 0.69 0.65 0.63 0.61 0.60 0.58 0.59 0.60 0.59 0.54 0.44 0.42 0.39 0.35 0.32 0.28 0.25 0.26 0.25 0.22 0.20
0.72 0.69 0.67 0.63 0.60 0.59 0.59 0.61 0.62 0.58 0.51 0.46 0.39 0.34 0.32 0.30 0.27 0.25 0.25 0.23 0.20 0.18
0.71 0.68 0.67 0.62 0.60 0.60 0.63 0.64 0.63 0.55 0.49 0.41 0.36 0.33 0.29 0.29 0.26 0.24 0.21 0.20 0.17 0.16
0.67 0.70 0.66 0.61 0.61 0.65 0.64 0.63 0.58 0.53 0.45 0.38 0.32 0.30 0.28 0.28 0.25 0.22 0.20 0.19 0.18 0.17
0.63 0.66 0.64 0.64 0.65 0.63 0.61 0.59 0.54 0.48 0.43 0.36 0.31 0.28 0.27 0.26 0.24 0.22 0.22 0.20 0.16 0.14
0.63 0.63 0.62 0.62 0.62 0.61 0.60 0.57 0.52 0.46 0.41 0.34 0.28 0.27 0.26 0.26 0.25 0.23 0.21 0.20 0.18 0.16
0.62 0.61 0.60 0.59 0.59 0.59 0.58 0.53 0.46 0.44 0.38 0.32 0.28 0.27 0.27 0.26 0.24 0.22 0.21 0.20 0.18 0.15
0.61 0.60 0.58 0.57 0.57 0.56 0.52 0.46 0.43 0.39 0.36 0.31 0.27 0.26 0.26 0.26 0.24 0.22 0.20 0.18 0.16 0.15
0.58 0.57 0.56 0.55 0.54 0.51 0.46 0.42 0.37 0.34 0.31 0.29 0.26 0.24 0.24 0.27 0.25 0.22 0.21 0.19 0.17 0.15
Wind_Speed
36 34 32 31 29 28 27 26 25 24 23 23 23 23 23 23 24 23 23 23 24 25
37 36 34 32 31 30 29 28 27 25 25 24 24 24 24 24 24 23 22 22 24 26
37 37 35 34 33 32 30 29 28 27 26 25 25 24 24 23 22 21 21 22 24 25
38 37 37 36 34 33 32 30 29 28 27 26 24 23 22 21 20 20 20 21 23 24
38 38 37 36 36 34 32 31 30 28 26 24 23 22 21 20 19 19 19 20 21 23
39 39 38 37 36 35 33 31 30 27 25 23 22 21 19 19 18 18 18 19 21 23
37 36 36 36 35 34 33 31 29 26 24 23 21 19 18 18 17 17 18 19 20 21
36 34 34 34 33 32 30 29 27 25 23 21 19 18 18 18 17 17 17 18 19 19
36 34 33 32 32 31 30 28 26 24 22 20 19 18 17 17 17 17 17 17 18 18
37 34 33 32 32 31 29 25 24 22 20 18 18 17 16 16 16 16 17 17 17 16
34 32 31 31 29 27 26 24 22 20 19 17 16 16 15 15 15 15 15 16 15 14
31 30 29 28 27 26 24 22 21 20 19 17 17 16 16 16 15 15 15 14 14 13
28 26 25 25 24 22 21 20 19 18 18 17 17 17 16 16 16 15 14 13 13 12
22 22 22 22 20 19 18 17 17 17 17 17 17 17 17 16 16 15 14 14 13 12
Wind_Direction
247 249 252 254 256 257 259 261 263 267 271 274 277 280 281 284 287 287 289 292 294 297
244 246 249 251 253 255 256 258 261 264 268 272 276 280 281 283 284 286 288 291 296 301
243 245 248 249 250 252 253 256 259 262 266 270 274 277 279 281 283 285 288 293 297 302
244 245 246 247 249 250 251 254 257 261 265 269 272 274 275 279 281 285 289 294 301 305
245 245 246 247 248 248 249 252 255 260 263 265 267 270 272 277 281 284 290 297 303 307
246 246 247 248 247 247 248 252 255 257 257 261 266 268 269 273 278 284 291 298 304 309
245 245 244 244 244 244 247 250 254 252 253 258 261 263 268 273 279 284 290 298 305 310
244 243 243 241 240 242 245 247 251 245 251 254 257 262 265 271 276 282 288 298 304 309
241 242 240 240 239 243 244 246 242 243 248 251 256 259 265 268 274 280 288 295 301 303
238 240 239 240 240 240 241 236 236 241 244 249 252 254 263 269 275 280 289 294 297 298
235 235 235 236 234 233 231 233 235 239 241 246 248 253 261 269 276 282 288 292 293 294
230 229 229 230 226 228 227 227 233 237 239 241 248 254 262 269 275 279 286 289 288 290
227 225 224 219 219 218 219 226 229 233 240 241 246 254 262 268 272 276 281 280 283 286
216 214 211 207 208 210 217 223 229 234 241 244 249 255 261 267 270 271 272 273 275 278